1512572400.17,12000,3.0,73302.0,-6.53,-6.81,-6.73,0,*5E
1512572401.4,12001,3.0,73322.8,-6.53,-6.81,-6.81,0,*52
1512572402.63,12002,3.0,73302.5,-6.53,-6.81,-6.81,0,*51
1512572403.83,12003,3.0,73284.0,-6.55,-6.85,-6.73,0,*5F
1512572405.05,12004,3.0,73288.0,-6.53,-6.81,-6.73,0,*5A
1512572406.25,12005,3.0,73286.5,-6.55,-6.81,-6.73,0,*5D
1512572407.48,12006,3.0,73306.8,-6.53,-6.81,-6.81,0,*55
1512572408.71,12007,3.0,73304.8,-6.53,-6.81,-6.81,0,*54
1512572409.96,12008,3.0,73318.5,-6.53,-6.85,-6.93,0,*5C
1512572411.15,12009,3.0,73306.8,-6.51,-6.89,-6.89,0,*58
1512572412.35,12010,3.0,73278.8,-6.51,-6.89,-6.89,0,*50
1512572413.55,12011,3.0,73270.0,-6.51,-6.89,-6.81,0,*59
1512572414.77,12012,3.0,73310.0,-6.51,-6.89,-6.93,0,*59
1512572415.97,12013,3.0,73214.8,-6.47,-6.85,-6.85,0,*54
1512572417.2,12014,3.0,73174.5,-6.51,-6.77,-6.63,0,*51
1512572418.42,12015,3.0,73206.5,-6.53,-6.81,-6.69,0,*51
1512572419.63,12016,3.0,73276.3,-6.53,-6.73,-6.69,0,*5F
1512572420.83,12017,3.0,73274.3,-6.51,-6.77,-6.69,0,*58
1512572422.06,12018,3.0,73310.5,-6.51,-6.77,-6.63,0,*5D
1512572423.3,12019,3.0,73232.0,-6.51,-6.63,-6.63,0,*59
1512572424.5,12020,3.0,73272.0,-6.51,-6.59,-6.51,0,*5B
1512572425.72,12021,3.0,73196.0,-6.47,-6.63,-6.51,0,*54
1512572426.92,12022,3.0,73292.8,-6.47,-6.59,-6.51,0,*5E
1512572428.14,12023,3.0,73242.0,-6.47,-6.59,-6.63,0,*5E
1512572429.34,12024,3.0,73366.0,-6.47,-6.59,-6.59,0,*50
1512572430.54,12025,3.0,73306.8,-6.51,-6.55,-6.55,0,*56
1512572431.75,12026,3.0,73296.8,-6.47,-6.51,-6.47,0,*55
1512572432.97,12027,3.0,73330.5,-6.45,-6.51,-6.47,0,*56
1512572434.2,12028,3.0,73308.0,-6.45,-6.47,-6.51,0,*59
1512572435.42,12029,3.0,73324.3,-6.45,-6.43,-6.43,0,*5F
1512572436.62,12030,3.0,73346.0,-6.43,-6.43,-6.43,0,*51
1512572437.81,12031,3.0,73356.8,-6.43,-6.43,-6.35,0,*51
1512572439.01,12032,3.0,73344.0,-6.43,-6.47,-6.43,0,*57
1512572440.21,12033,3.0,73276.5,-6.43,-6.43,-6.43,0,*52
1512572441.43,12034,3.0,73292.8,-6.45,-6.35,-6.43,0,*52
1512572442.63,12035,3.0,73308.0,-6.43,-6.43,-6.35,0,*55
1512572443.83,12036,3.0,73320.0,-6.43,-6.35,-6.35,0,*57
1512572445.03,12037,3.0,73278.3,-6.43,-6.35,-6.35,0,*56
1512572446.26,12038,3.0,73300.8,-6.41,-6.31,-6.31,0,*5B
1512572447.48,12039,3.0,73312.5,-6.41,-6.31,-6.31,0,*5A
1512572448.71,12040,3.0,73322.8,-6.41,-6.31,-6.31,0,*54
1512572449.93,12041,3.0,73334.3,-6.41,-6.31,-6.39,0,*5D
1512572451.12,12042,3.0,73312.8,-6.39,-6.31,-6.39,0,*51
1512572452.32,12043,3.0,73296.5,-6.39,-6.31,-6.39,0,*50
1512572453.51,12044,3.0,73302.5,-6.39,-6.39,-6.39,0,*5F
1512572454.73,12045,3.0,73322.0,-6.41,-6.39,-6.39,0,*51
1512572455.93,12046,3.0,73258.8,-6.39,-6.39,-6.31,0,*55
1512572457.19,12047,3.0,73272.8,-6.37,-6.27,-6.27,0,*52
1512572458.44,12048,3.0,73324.8,-6.35,-6.23,-6.19,0,*56
1512572459.68,12049,3.0,73320.8,-6.35,-6.23,-6.23,0,*5E
1512572460.94,12050,3.0,73314.5,-6.37,-6.23,-6.23,0,*54
1512572462.19,12051,3.0,73310.5,-6.35,-6.23,-6.19,0,*5E
1512572463.43,12052,3.0,73318.3,-6.35,-6.23,-6.23,0,*54
1512572464.67,12053,3.0,73318.8,-6.35,-6.23,-6.23,0,*55
1512572465.9,12054,3.0,73244.5,-6.35,-6.23,-6.35,0,*55
1512572467.1,12055,3.0,73278.8,-6.35,-6.31,-6.31,0,*53
1512572468.32,12056,3.0,73342.0,-6.33,-6.39,-6.47,0,*5F
1512572469.54,12057,3.0,73276.8,-6.33,-6.47,-6.47,0,*57
1512572470.76,12058,3.0,73278.8,-6.33,-6.47,-6.39,0,*51
1512572471.98,12059,3.0,73316.8,-6.31,-6.31,-6.27,0,*5C
1512572473.22,12060,3.0,73340.5,-6.31,-6.27,-6.27,0,*51
1512572474.44,12061,3.0,73292.8,-6.33,-6.35,-6.31,0,*56
1512572475.65,12062,3.0,73296.3,-6.31,-6.35,-6.31,0,*57
1512572476.87,12063,3.0,73306.5,-6.33,-6.35,-6.39,0,*5C
1512572478.07,12064,3.0,73318.5,-6.31,-6.35,-6.43,0,*54
1512572479.29,12065,3.0,73334.5,-6.33,-6.47,-6.47,0,*56
1512572480.52,12066,3.0,73326.0,-6.33,-6.51,-6.51,0,*55
1512572481.71,12067,3.0,73298.5,-6.31,-6.55,-6.55,0,*56
1512572482.95,12068,3.0,73296.8,-6.33,-6.63,-6.59,0,*52
1512572484.14,12069,3.0,73314.3,-6.31,-6.69,-6.69,0,*58
1512572485.32,12070,3.0,73316.8,-6.31,-6.69,-6.69,0,*50
1512572486.51,12071,3.0,73240.3,-6.31,-6.69,-6.69,0,*51
1512572487.7,12072,3.0,73272.3,-6.31,-6.73,-6.69,0,*59
1512572488.92,12073,3.0,73292.0,-6.33,-6.85,-6.77,0,*5C
1512572490.11,12074,3.0,73300.8,-6.31,-6.77,-6.77,0,*54
1512572491.33,12075,3.0,73302.5,-6.33,-6.73,-6.69,0,*5C
1512572492.54,12076,3.0,73298.5,-6.31,-6.63,-6.59,0,*5F
1512572493.74,12077,3.0,73282.3,-6.31,-6.59,-6.59,0,*57
1512572494.98,12078,3.0,73290.8,-6.33,-6.63,-6.77,0,*5F
1512572496.16,12079,3.0,73274.3,-6.31,-6.69,-6.69,0,*59
1512572497.41,12080,3.0,73284.0,-6.33,-6.59,-6.63,0,*54
1512572498.65,12081,3.0,73280.3,-6.33,-6.63,-6.59,0,*55
1512572499.85,12082,3.0,73270.5,-6.31,-6.59,-6.59,0,*5D
1512572501.1,12083,3.0,73244.3,-6.33,-6.73,-6.63,0,*5F
1512572502.29,12084,3.0,73206.0,-6.31,-6.69,-6.59,0,*58
1512572503.47,12085,3.0,73234.3,-6.31,-6.69,-6.69,0,*5A
1512572504.66,12086,3.0,73328.3,-6.31,-6.69,-6.69,0,*59
1512572505.85,12087,3.0,73360.3,-6.31,-6.73,-6.73,0,*58
1512572507.07,12088,3.0,73318.0,-6.33,-6.77,-6.73,0,*51
1512572508.26,12089,3.0,73316.5,-6.31,-6.59,-6.69,0,*55
1512572509.46,12090,3.0,73294.5,-6.31,-6.59,-6.59,0,*5E
1512572510.64,12091,3.0,73344.8,-6.31,-6.69,-6.69,0,*5F
1512572511.84,12092,3.0,73320.3,-6.31,-6.59,-6.59,0,*5C
1512572513.04,12093,3.0,73344.8,-6.31,-6.55,-6.55,0,*5D
1512572514.23,12094,3.0,73344.8,-6.31,-6.55,-6.55,0,*5A
1512572515.43,12095,3.0,73350.8,-6.31,-6.55,-6.59,0,*57
1512572516.62,12096,3.0,73358.3,-6.31,-6.55,-6.55,0,*58
1512572517.82,12097,3.0,73364.5,-6.31,-6.47,-6.55,0,*5A
1512572519.01,12098,3.0,73340.8,-6.31,-6.55,-6.55,0,*56
1512572520.23,12099,3.0,73348.3,-6.29,-6.55,-6.59,0,*52
1512572521.43,12100,3.0,73348.8,-6.31,-6.55,-6.59,0,*5A
1512572522.65,12101,3.0,73348.8,-6.29,-6.59,-6.55,0,*52
1512572523.87,12102,3.0,73354.8,-6.29,-6.55,-6.55,0,*5D
1512572525.09,12103,3.0,73360.5,-6.29,-6.59,-6.55,0,*50
1512572526.31,12104,3.0,73364.5,-6.29,-6.59,-6.59,0,*5B
1512572527.53,12105,3.0,73364.8,-6.29,-6.59,-6.59,0,*5A
1512572528.75,12106,3.0,73378.8,-6.29,-6.59,-6.55,0,*55
1512572529.95,12107,3.0,73388.8,-6.31,-6.59,-6.59,0,*51
1512572531.17,12108,3.0,73390.5,-6.29,-6.59,-6.59,0,*57
1512572532.39,12109,3.0,73352.5,-6.29,-6.55,-6.47,0,*55
1512572533.59,12110,3.0,73316.8,-6.25,-6.51,-6.51,0,*52
1512572534.81,12111,3.0,73322.0,-6.29,-6.59,-6.59,0,*5F
1512572536.04,12112,3.0,73344.5,-6.29,-6.59,-6.59,0,*5C
1512572537.26,12113,3.0,73352.0,-6.29,-6.55,-6.59,0,*51
1512572538.48,12114,3.0,73348.0,-6.29,-6.59,-6.59,0,*5A
1512572539.7,12115,3.0,73350.3,-6.29,-6.59,-6.59,0,*5B
1512572540.92,12116,3.0,73354.8,-6.29,-6.55,-6.59,0,*54
1512572542.14,12117,3.0,73354.0,-6.29,-6.55,-6.55,0,*59
1512572543.34,12118,3.0,73354.0,-6.25,-6.55,-6.55,0,*5A
1512572544.55,12119,3.0,73356.0,-6.25,-6.51,-6.51,0,*5B
1512572545.75,12120,3.0,73370.3,-6.25,-6.55,-6.51,0,*55
1512572546.95,12121,3.0,73320.8,-6.25,-6.55,-6.59,0,*5C
1512572548.16,12122,3.0,73300.0,-6.25,-6.59,-6.55,0,*5F
1512572549.37,12123,3.0,73328.3,-6.25,-6.51,-6.51,0,*52
1512572550.57,12124,3.0,73330.3,-6.25,-6.51,-6.51,0,*55
1512572551.79,12125,3.0,73336.8,-6.23,-6.39,-6.39,0,*52
1512572553.02,12126,3.0,73356.8,-6.23,-6.39,-6.31,0,*59
1512572554.25,12127,3.0,73364.5,-6.23,-6.39,-6.31,0,*58
1512572555.45,12128,3.0,73360.5,-6.25,-6.39,-6.31,0,*51
1512572556.65,12129,3.0,73348.0,-6.25,-6.43,-6.35,0,*59
1512572557.88,12130,3.0,73330.8,-6.23,-6.43,-6.43,0,*56
1512572559.11,12131,3.0,73318.5,-6.21,-6.51,-6.63,0,*54
1512572560.36,12132,3.0,73292.5,-6.23,-6.81,-6.93,0,*57
1512572561.64,12133,3.0,73294.8,-6.23,-6.93,-7.01,0,*5F
1512572562.9,12134,3.0,73300.0,-6.23,-7.05,-7.05,0,*52
1512572564.15,12135,3.0,73300.5,-6.23,-7.05,-7.19,0,*5E
1512572565.39,12136,3.0,73326.8,-6.23,-7.11,-7.11,0,*50
1512572566.62,12137,3.0,73322.5,-6.23,-7.11,-7.11,0,*51
1512572567.86,12138,3.0,73310.8,-6.23,-7.11,-7.11,0,*5E
1512572569.07,12139,3.0,73316.0,-6.29,-7.15,-7.15,0,*55
1512572570.28,12140,3.0,73312.5,-6.25,-7.11,-7.11,0,*57
1512572571.5,12141,3.0,73288.3,-6.29,-7.15,-7.15,0,*5A
1512572572.72,12142,3.0,73302.8,-6.29,-7.15,-7.15,0,*59
1512572573.94,12143,3.0,73308.3,-6.29,-7.23,-7.15,0,*5D
1512572575.16,12144,3.0,73290.0,-6.29,-7.15,-7.15,0,*5F
1512572576.38,12145,3.0,73312.0,-6.29,-7.15,-7.15,0,*5E
1512572577.6,12146,3.0,73312.3,-6.29,-7.15,-7.15,0,*5D
1512572578.83,12147,3.0,73316.0,-6.29,-7.11,-7.15,0,*58
1512572580.05,12148,3.0,73324.0,-6.29,-7.11,-7.11,0,*53
1512572581.31,12149,3.0,73322.8,-6.29,-7.05,-7.05,0,*52
1512572582.55,12150,3.0,73326.5,-6.29,-7.11,-7.05,0,*5F
1512572583.81,12151,3.0,73326.0,-6.29,-7.05,-7.05,0,*5B
1512572585.07,12152,3.0,73308.0,-6.29,-7.05,-6.97,0,*52
1512572586.34,12153,3.0,73336.0,-6.29,-7.05,-6.97,0,*53
1512572587.61,12154,3.0,73254.0,-6.29,-6.97,-6.97,0,*5E
1512572588.87,12155,3.0,73282.5,-6.29,-7.05,-6.97,0,*55
1512572590.12,12156,3.0,73310.0,-6.25,-7.01,-7.01,0,*50
1512572591.33,12157,3.0,73312.8,-6.31,-7.11,-7.11,0,*54
1512572592.56,12158,3.0,73342.0,-6.31,-7.05,-7.05,0,*5B
1512572593.8,12159,3.0,73340.0,-6.31,-7.05,-7.05,0,*5A
1512572595.01,12160,2.94,73328.3,-6.31,-7.11,-7.05,0,*55
1512572596.25,12161,3.0,73348.5,-6.31,-7.05,-7.05,0,*51
1512572597.48,12162,3.0,73330.5,-6.31,-7.05,-7.05,0,*52
1512572598.72,12163,3.0,73298.0,-6.31,-6.97,-7.05,0,*59
1512572599.97,12164,3.0,73276.8,-6.31,-6.97,-6.97,0,*54
1512572601.21,12165,3.0,73314.0,-6.31,-6.93,-6.93,0,*55
1512572602.46,12166,3.0,73320.0,-6.31,-6.97,-6.97,0,*56
1512572603.69,12167,3.0,73296.3,-6.31,-7.05,-7.05,0,*57
1512572604.94,12168,3.0,73284.8,-6.31,-7.05,-6.97,0,*52
1512572606.16,12169,3.0,73304.0,-6.31,-7.11,-6.97,0,*56
1512572607.39,12170,3.0,73282.5,-6.31,-7.05,-7.05,0,*51
1512572608.64,12171,3.0,73302.8,-6.31,-7.05,-6.97,0,*5A
1512572609.88,12172,3.0,73282.3,-6.31,-6.93,-6.93,0,*53
1512572611.07,12173,3.0,73312.0,-6.31,-6.85,-6.85,0,*52
1512572612.28,12174,3.0,73254.3,-6.31,-6.81,-6.81,0,*55
1512572613.47,12175,3.0,73176.3,-6.31,-6.85,-6.85,0,*54
1512572614.66,12176,3.0,73240.3,-6.31,-6.85,-6.85,0,*57
1512572615.88,12177,3.0,73316.3,-6.29,-6.85,-6.81,0,*5B
1512572617.11,12178,3.0,73350.5,-6.29,-6.81,-6.81,0,*50
1512572618.33,12179,3.0,73330.5,-6.29,-6.85,-6.81,0,*55
1512572619.56,12180,3.0,73338.8,-6.29,-6.81,-6.81,0,*57
1512572620.77,12181,3.0,73332.3,-6.29,-6.85,-6.85,0,*56
1512572622.04,12182,3.0,73350.0,-6.29,-6.93,-6.93,0,*55
1512572623.31,12183,3.0,73340.8,-6.29,-6.93,-6.93,0,*54
1512572624.54,12184,3.0,73332.0,-6.29,-6.81,-6.81,0,*53
1512572625.75,12185,3.0,73334.3,-6.29,-6.85,-6.85,0,*52
1512572626.97,12186,3.0,73334.3,-6.29,-6.85,-6.85,0,*51
1512572628.21,12187,3.0,73332.8,-6.29,-6.93,-6.85,0,*57
1512572629.46,12188,3.0,73358.0,-6.29,-6.93,-6.85,0,*58
1512572630.69,12189,3.0,73316.3,-6.25,-6.93,-6.81,0,*51
1512572631.9,12190,3.0,73294.8,-6.25,-6.77,-6.81,0,*53
1512572633.11,12191,3.0,73322.3,-6.29,-6.85,-6.85,0,*57
1512572634.38,12192,3.0,73324.5,-6.29,-6.93,-6.93,0,*54
1512572635.62,12193,3.0,73334.0,-6.29,-6.85,-6.93,0,*52
1512572636.83,12194,3.0,73328.5,-6.25,-6.89,-6.81,0,*56
1512572638.07,12195,3.0,73346.5,-6.29,-6.97,-6.85,0,*50
1512572639.34,12196,3.0,73348.5,-6.29,-6.93,-6.97,0,*54
1512572640.61,12197,3.0,73340.5,-6.29,-6.97,-6.93,0,*55
1512572641.88,12198,3.0,73358.8,-6.29,-6.93,-6.93,0,*5E
1512572643.15,12199,3.0,73346.8,-6.29,-7.05,-6.97,0,*55
1512572644.42,12200,3.0,73344.8,-6.29,-6.97,-6.93,0,*58
1512572645.68,12201,3.0,73350.3,-6.29,-7.05,-6.93,0,*53
1512572646.95,12202,3.0,73350.0,-6.29,-6.93,-6.97,0,*5A
1512572648.22,12203,3.0,73348.3,-6.29,-6.93,-6.93,0,*5F
1512572649.49,12204,3.0,73354.3,-6.29,-6.93,-6.93,0,*58
1512572650.7,12205,3.0,73358.0,-6.25,-6.81,-6.81,0,*55
1512572651.92,12206,3.0,73362.0,-6.29,-6.81,-6.85,0,*5E
1512572653.14,12207,3.0,73360.8,-6.29,-6.73,-6.81,0,*56
1512572654.35,12208,3.0,73358.8,-6.25,-6.55,-6.51,0,*5C
1512572655.56,12209,3.0,73366.5,-6.29,-6.47,-6.43,0,*51
1512572656.76,12210,3.0,73364.8,-6.25,-6.39,-6.31,0,*59
1512572657.99,12211,3.0,73358.0,-6.23,-6.39,-6.31,0,*5E
1512572659.22,12212,3.0,73332.5,-6.23,-6.31,-6.31,0,*55
1512572660.45,12213,3.0,73342.8,-6.23,-6.31,-6.31,0,*54
1512572661.7,12214,3.0,73338.0,-6.21,-6.19,-6.27,0,*5C
1512572662.97,12215,3.0,73316.0,-6.23,-6.27,-6.23,0,*56
1512572664.24,12216,3.0,73320.5,-6.23,-6.23,-6.23,0,*51
1512572665.43,12217,3.0,73316.5,-6.21,-6.05,-6.05,0,*52
1512572666.65,12218,3.0,73316.0,-6.23,-6.13,-6.13,0,*5F
1512572667.85,12219,3.0,73292.8,-6.21,-6.09,-6.05,0,*50
1512572669.04,12220,3.0,73272.3,-6.21,-6.13,-6.13,0,*56
1512572670.24,12221,3.0,73220.8,-6.21,-6.09,-6.09,0,*57
1512572671.47,12222,3.0,73202.8,-6.19,-6.09,-6.09,0,*5F
1512572672.72,12223,3.0,73216.3,-6.19,-6.19,-6.09,0,*5F
1512572673.99,12224,3.0,73206.8,-6.19,-6.27,-6.27,0,*59
1512572675.23,12225,3.0,73192.5,-6.17,-6.23,-6.23,0,*56
1512572676.49,12226,3.0,73222.5,-6.17,-6.19,-6.19,0,*55
1512572677.71,12227,3.0,73308.8,-6.17,-6.13,-6.23,0,*57
1512572678.95,12228,3.0,73262.3,-6.17,-6.23,-6.23,0,*5B
1512572680.15,12229,3.0,73230.3,-6.17,-6.35,-6.31,0,*5E
1512572681.35,12230,3.0,73220.0,-6.17,-6.47,-6.35,0,*57
1512572682.6,12231,3.0,73210.3,-6.19,-6.63,-6.73,0,*5C
1512572683.79,12232,3.0,73252.5,-6.17,-6.69,-6.69,0,*50
1512572684.98,12233,3.0,73208.5,-6.17,-6.69,-6.69,0,*51
1512572686.17,12234,3.0,73212.0,-6.17,-6.69,-6.59,0,*55
1512572687.37,12235,3.0,73278.3,-6.17,-6.59,-6.59,0,*57
1512572688.57,12236,3.0,73264.3,-6.17,-6.55,-6.59,0,*58
1512572689.77,12237,3.0,73230.0,-6.17,-6.59,-6.55,0,*59
1512572690.97,12238,3.0,73246.3,-6.17,-6.55,-6.47,0,*59
1512572692.17,12239,3.0,73290.5,-6.17,-6.55,-6.59,0,*57
1512572693.37,12240,3.0,73228.3,-6.17,-6.59,-6.55,0,*59
1512572694.57,12241,3.0,73222.3,-6.17,-6.55,-6.59,0,*58
1512572695.78,12242,3.0,73264.8,-6.17,-6.55,-6.59,0,*5B
1512572696.97,12243,3.0,73286.0,-6.17,-6.69,-6.59,0,*55
1512572698.17,12244,3.0,73298.3,-6.13,-6.55,-6.51,0,*51
1512572699.38,12245,3.0,73288.0,-6.13,-6.51,-6.39,0,*5A
1512572700.58,12246,3.0,73314.8,-6.13,-6.51,-6.39,0,*59
1512572701.78,12247,3.0,73256.8,-6.13,-6.55,-6.51,0,*52
1512572702.99,12248,3.0,73306.5,-6.13,-6.51,-6.51,0,*59
1512572704.2,12249,3.0,73308.3,-6.13,-6.51,-6.51,0,*58
1512572705.4,12250,3.0,73308.3,-6.13,-6.51,-6.51,0,*50
1512572706.6,12251,3.0,73324.3,-6.13,-6.43,-6.43,0,*51
1512572707.8,12252,3.0,73330.0,-6.13,-6.39,-6.43,0,*5F
1512572709.01,12253,3.0,73330.8,-6.13,-6.55,-6.55,0,*53
1512572710.21,12254,3.0,73332.0,-6.13,-6.55,-6.55,0,*54
1512572711.41,12255,3.0,73332.3,-6.13,-6.51,-6.51,0,*55
1512572712.61,12256,3.0,73330.0,-6.13,-6.39,-6.39,0,*56
1512572713.84,12257,3.0,73326.0,-6.13,-6.31,-6.27,0,*50
1512572715.08,12258,3.0,73322.3,-6.13,-6.27,-6.27,0,*58
1512572716.3,12259,3.0,73322.0,-6.13,-6.27,-6.13,0,*5E
1512572717.52,12260,3.0,73314.0,-6.13,-6.19,-6.09,0,*52
1512572718.75,12261,3.0,73296.5,-6.13,-6.19,-6.09,0,*53
1512572719.97,12262,3.0,73312.3,-6.13,-6.19,-6.13,0,*5B
1512572721.17,12263,3.0,73316.5,-6.13,-6.09,-6.09,0,*50
1512572722.4,12264,3.0,73290.5,-6.11,-6.09,-6.01,0,*5D
1512572723.59,12265,3.0,73304.3,-6.09,-6.05,-5.97,0,*55
1512572724.81,12266,3.0,73312.8,-6.11,-6.13,-6.09,0,*5C
1512572726.01,12267,3.0,73322.0,-6.09,-6.13,-6.09,0,*54
1512572727.2,12268,3.0,73310.0,-6.09,-6.13,-6.13,0,*50
1512572728.45,12269,3.0,73300.5,-6.11,-6.19,-6.13,0,*52
1512572729.64,12270,3.0,73318.5,-6.09,-6.05,-6.13,0,*5E
1512572730.89,12271,3.0,73318.0,-6.11,-6.19,-6.13,0,*5B
1512572732.09,12272,3.0,73306.3,-6.09,-6.09,-6.13,0,*50
1512572733.29,12273,3.0,73318.8,-6.09,-6.13,-6.13,0,*5A
1512572734.51,12274,3.0,73302.8,-6.07,-6.13,-6.13,0,*53
1512572735.75,12275,3.0,73256.5,-6.07,-6.27,-6.13,0,*55
1512572737.02,12276,3.0,73258.8,-6.07,-6.23,-6.23,0,*51
1512572738.29,12277,3.0,73274.0,-6.07,-6.23,-6.23,0,*50
1512572739.56,12278,3.0,73282.5,-6.07,-6.23,-6.23,0,*5F
1512572740.8,12279,3.0,73284.0,-6.05,-6.19,-6.23,0,*55
1512572742.05,12280,3.0,73276.8,-6.05,-6.23,-6.19,0,*53
1512572743.32,12281,3.0,73272.5,-6.07,-6.23,-6.23,0,*59
1512572744.57,12282,3.0,73256.8,-6.05,-6.19,-6.19,0,*58
1512572745.82,12283,3.0,73272.0,-6.05,-6.23,-6.19,0,*50
1512572747.06,12284,3.0,73314.5,-6.05,-6.23,-6.23,0,*5E
1512572748.31,12285,3.0,73288.8,-6.05,-6.19,-6.23,0,*56
1512572749.57,12286,3.0,73280.5,-6.07,-6.23,-6.23,0,*5E
1512572750.78,12287,3.0,73334.0,-6.05,-6.31,-6.35,0,*59
1512572751.98,12288,3.0,73294.5,-6.05,-6.35,-6.35,0,*52
1512572753.18,12289,3.0,73304.0,-6.05,-6.31,-6.43,0,*56
1512572754.41,12290,3.0,73346.3,-6.07,-6.51,-6.51,0,*59
1512572755.61,12291,3.0,73296.3,-6.05,-6.43,-6.43,0,*5A
1512572756.8,12292,3.0,73262.3,-6.05,-6.47,-6.43,0,*5D
1512572758.0,12293,3.0,73358.8,-6.05,-6.47,-6.55,0,*5B
1512572759.2,12294,3.0,73322.0,-6.05,-6.43,-6.55,0,*58
1512572760.4,12295,3.0,73276.5,-6.05,-6.43,-6.47,0,*5A
1512572761.6,12296,3.0,73308.5,-6.05,-6.47,-6.47,0,*5D
1512572762.8,12297,3.0,73320.0,-6.05,-6.43,-6.47,0,*58
1512572763.99,12298,3.0,73300.3,-6.05,-6.47,-6.47,0,*53
1512572765.19,12299,3.0,73312.3,-6.05,-6.47,-6.47,0,*52
1512572766.39,12300,3.0,73308.5,-6.05,-6.43,-6.43,0,*53
1512572767.59,12301,3.0,73322.0,-6.05,-6.47,-6.43,0,*56
1512572768.78,12302,3.0,73314.5,-6.05,-6.47,-6.43,0,*55
1512572769.98,12303,3.0,73358.8,-6.05,-6.43,-6.43,0,*50
1512572771.18,12304,3.0,73338.0,-6.05,-6.47,-6.43,0,*53
1512572772.38,12305,3.0,73338.0,-6.05,-6.47,-6.47,0,*56
1512572773.61,12306,3.0,73358.8,-6.07,-6.51,-6.51,0,*57
1512572774.84,12307,3.0,73330.3,-6.07,-6.51,-6.51,0,*56
1512572776.07,12308,3.0,73304.8,-6.07,-6.51,-6.51,0,*59
1512572777.32,12309,3.0,73290.3,-6.07,-6.63,-6.59,0,*51
1512572778.54,12310,3.0,73264.8,-6.07,-6.77,-6.77,0,*50
1512572779.73,12311,3.0,73258.3,-6.05,-6.73,-6.69,0,*58
1512572780.92,12312,3.0,73378.5,-6.01,-6.69,-6.69,0,*54
1512572782.1,12313,3.0,73358.5,-6.01,-6.69,-6.69,0,*55
1512572783.3,12314,3.0,73366.8,-6.05,-6.81,-6.85,0,*52
1512572784.49,12315,3.0,73364.8,-6.05,-6.73,-6.69,0,*5C
1512572785.68,12316,3.0,73342.0,-6.05,-6.69,-6.69,0,*54
1512572786.88,12317,3.0,73336.5,-6.05,-6.69,-6.59,0,*56
1512572788.15,12318,3.0,73310.8,-6.07,-6.63,-6.63,0,*58
1512572789.35,12319,3.0,73210.3,-6.05,-6.59,-6.59,0,*5B
1512572790.57,12320,3.0,73368.8,-6.07,-6.77,-6.85,0,*5E
1512572791.77,12321,3.0,73326.5,-6.05,-6.73,-6.73,0,*50
1512572792.99,12322,3.0,73340.0,-6.07,-6.73,-6.73,0,*51
1512572794.18,12323,3.0,73348.5,-6.05,-6.73,-6.69,0,*59
1512572795.4,12324,3.0,73334.0,-6.07,-6.73,-6.77,0,*53
1512572796.59,12325,3.0,73344.0,-6.05,-6.69,-6.73,0,*5F
1512572797.82,12326,3.0,73350.0,-6.07,-6.73,-6.73,0,*55
1512572799.01,12327,3.0,73324.3,-6.05,-6.73,-6.69,0,*5D
1512572800.2,12328,3.0,73336.3,-6.05,-6.69,-6.73,0,*52
1512572801.39,12329,3.0,73340.3,-6.05,-6.73,-6.73,0,*58
1512572802.59,12330,3.0,73342.3,-6.05,-6.73,-6.69,0,*5B
1512572803.81,12331,3.0,73310.0,-6.07,-6.77,-6.77,0,*53
1512572805.04,12332,3.0,73304.0,-6.07,-6.77,-6.85,0,*5D
1512572806.26,12333,3.0,73346.8,-6.07,-6.85,-6.85,0,*51
1512572807.47,12334,3.0,73332.3,-6.05,-6.81,-6.81,0,*54
1512572808.69,12335,3.0,73346.3,-6.07,-6.73,-6.85,0,*5E
1512572809.89,12336,3.0,73350.5,-6.05,-6.81,-6.73,0,*5B
1512572811.11,12337,3.0,73350.3,-6.07,-6.85,-6.77,0,*58
1512572812.33,12338,3.0,73332.8,-6.07,-6.85,-6.89,0,*56
1512572813.55,12339,3.0,73336.3,-6.07,-6.85,-6.85,0,*5B
1512572814.78,12340,3.0,73336.3,-6.07,-6.77,-6.77,0,*55
1512572816.01,12341,3.0,73330.0,-6.07,-6.77,-6.73,0,*50
1512572817.23,12342,3.0,73336.3,-6.07,-6.73,-6.59,0,*5F
1512572818.43,12343,3.0,73348.5,-6.05,-6.55,-6.59,0,*58
1512572819.66,12344,3.0,73352.3,-6.07,-6.59,-6.59,0,*51
1512572820.88,12345,3.0,73354.5,-6.07,-6.47,-6.47,0,*50
1512572822.1,12346,3.0,73356.0,-6.07,-6.47,-6.39,0,*5A
1512572823.31,12347,3.0,73356.5,-6.05,-6.35,-6.35,0,*50
1512572824.51,12348,3.0,73348.3,-6.05,-6.31,-6.31,0,*5F
1512572825.73,12349,3.0,73358.0,-6.05,-6.31,-6.23,0,*5D
1512572826.93,12350,3.0,73364.3,-6.05,-6.31,-6.31,0,*56
1512572828.15,12351,3.0,73364.0,-6.05,-6.31,-6.19,0,*5D
1512572829.39,12352,3.0,73346.8,-6.05,-6.27,-6.23,0,*50
1512572830.64,12353,3.0,73306.0,-6.05,-6.23,-6.19,0,*5C
1512572831.89,12354,3.0,73288.8,-6.05,-6.19,-6.19,0,*52
1512572833.16,12355,3.0,73260.5,-6.07,-6.23,-6.23,0,*51
1512572834.41,12356,3.0,73228.5,-6.05,-6.19,-6.19,0,*50
1512572835.63,12357,3.0,73236.5,-6.01,-6.19,-6.13,0,*5F
1512572836.85,12358,3.0,73252.8,-6.01,-6.19,-6.13,0,*50
1512572838.12,12359,3.0,73290.0,-5.99,-6.19,-6.19,0,*59
1512572839.39,12360,3.0,73292.3,-5.99,-6.19,-6.27,0,*5E
1512572840.59,12361,3.0,73288.5,-6.01,-6.31,-6.31,0,*50
1512572841.82,12362,3.0,73290.3,-5.99,-6.31,-6.31,0,*51
1512572843.05,12363,3.0,73320.3,-5.99,-6.39,-6.27,0,*5F
1512572844.27,12364,3.0,73306.8,-5.99,-6.31,-6.39,0,*5F
1512572845.46,12365,3.0,73298.3,-6.01,-6.39,-6.43,0,*59
1512572846.66,12366,3.0,73334.8,-6.01,-6.39,-6.43,0,*5A
1512572847.87,12367,3.0,73322.3,-5.99,-6.39,-6.43,0,*59
1512572849.07,12368,3.0,73322.8,-6.01,-6.51,-6.43,0,*5A
1512572850.27,12369,3.0,73308.3,-6.01,-6.51,-6.43,0,*5B
1512572851.49,12370,3.0,73298.3,-5.99,-6.55,-6.55,0,*52
1512572852.72,12371,3.0,73302.8,-5.99,-6.51,-6.51,0,*53
1512572853.92,12372,3.0,73296.5,-6.01,-6.51,-6.51,0,*52
1512572855.13,12373,3.0,73260.8,-5.99,-6.55,-6.69,0,*5E
1512572856.34,12374,3.0,73262.8,-6.01,-6.63,-6.69,0,*5E
1512572857.53,12375,3.0,73270.5,-6.01,-6.69,-6.69,0,*55
1512572858.73,12376,3.0,73292.5,-6.01,-6.77,-6.77,0,*56
1512572859.95,12377,3.0,73292.8,-5.99,-6.81,-6.77,0,*5C
1512572861.15,12378,3.0,73292.0,-6.01,-6.81,-6.81,0,*58
1512572862.34,12379,3.0,73286.8,-6.01,-6.77,-6.77,0,*59
1512572863.54,12380,3.0,73284.3,-6.01,-6.77,-6.77,0,*5F
1512572864.74,12381,3.0,73326.0,-6.01,-6.77,-6.77,0,*5E
1512572865.94,12382,3.0,73326.3,-6.01,-6.77,-6.81,0,*54
1512572867.13,12383,3.0,73322.3,-6.01,-6.77,-6.69,0,*53
1512572868.37,12384,3.0,73320.5,-5.99,-6.69,-6.63,0,*53
1512572869.58,12385,3.0,73340.8,-5.99,-6.69,-6.69,0,*58
1512572870.82,12386,3.0,73366.8,-6.01,-6.63,-6.63,0,*59
1512572872.06,12387,3.0,73340.8,-5.99,-6.69,-6.63,0,*50
1512572873.3,12388,3.0,73318.5,-6.01,-6.63,-6.63,0,*57
1512572874.54,12389,3.0,73310.3,-6.01,-6.63,-6.63,0,*56
1512572875.75,12390,3.0,73288.8,-6.01,-6.69,-6.63,0,*54
1512572876.94,12391,3.0,73264.5,-6.05,-6.69,-6.69,0,*5B
1512572878.13,12392,3.0,73356.8,-6.01,-6.69,-6.59,0,*5F
1512572879.33,12393,3.0,73342.5,-6.01,-6.55,-6.51,0,*59
1512572880.55,12394,3.0,73310.8,-5.99,-6.55,-6.55,0,*58
1512572881.73,12395,3.0,73274.5,-6.01,-6.69,-6.69,0,*5B
1512572882.93,12396,3.0,73340.0,-6.01,-6.77,-6.77,0,*58
1512572884.16,12397,3.0,73338.0,-5.99,-6.81,-6.81,0,*5B
1512572885.36,12398,3.0,73356.5,-6.01,-6.77,-6.81,0,*5F
1512572886.58,12399,3.0,73350.8,-5.99,-6.77,-6.77,0,*55
1512572887.78,12400,3.0,73344.3,-6.01,-6.81,-6.77,0,*59
1512572888.99,12401,3.0,73358.3,-5.99,-6.77,-6.77,0,*53
1512572890.2,12402,3.0,73360.8,-6.01,-6.77,-6.81,0,*5B
1512572891.39,12403,3.0,73360.3,-6.01,-6.77,-6.77,0,*53
1512572892.58,12404,3.0,73362.0,-6.01,-6.69,-6.77,0,*5B
1512572893.77,12405,3.0,73366.8,-6.01,-6.77,-6.69,0,*5A
1512572894.97,12406,3.0,73372.3,-6.05,-6.81,-6.73,0,*5F
1512572896.16,12407,3.0,73368.8,-6.01,-6.69,-6.69,0,*57
1512572897.37,12408,3.0,73372.0,-6.01,-6.63,-6.69,0,*52
1512572898.58,12409,3.0,73358.8,-6.01,-6.69,-6.63,0,*53
1512572899.82,12410,3.0,73360.8,-6.01,-6.63,-6.63,0,*51
1512572901.01,12411,3.0,73342.5,-6.01,-6.69,-6.55,0,*5F
1512572902.23,12412,3.0,73326.0,-6.01,-6.63,-6.55,0,*56
1512572903.44,12413,3.0,73330.0,-6.01,-6.63,-6.55,0,*57
1512572904.64,12414,3.0,73328.0,-6.01,-6.51,-6.51,0,*55
1512572905.87,12415,3.0,73334.3,-5.99,-6.51,-6.51,0,*56
1512572907.07,12416,3.0,73350.5,-6.01,-6.43,-6.51,0,*54
1512572908.26,12417,3.0,73356.0,-6.01,-6.43,-6.43,0,*56
1512572909.45,12418,3.0,73352.5,-6.01,-6.39,-6.39,0,*59
1512572910.65,12419,3.0,73358.8,-6.01,-6.31,-6.31,0,*58
1512572911.85,12420,3.0,73362.8,-6.01,-6.31,-6.31,0,*52
1512572913.11,12421,3.0,73346.0,-5.99,-6.27,-6.27,0,*51
1512572914.31,12422,3.0,73340.0,-6.01,-6.31,-6.31,0,*50
1512572915.53,12423,3.0,73330.8,-5.99,-6.43,-6.39,0,*5E
1512572916.74,12424,3.0,73324.8,-5.99,-6.43,-6.39,0,*59
1512572917.96,12425,3.0,73318.5,-5.99,-6.43,-6.43,0,*55
1512572919.16,12426,3.0,73306.3,-6.01,-6.43,-6.51,0,*57
1512572920.38,12427,3.0,73244.3,-5.99,-6.55,-6.55,0,*57
1512572921.6,12428,3.0,73244.3,-5.99,-6.55,-6.55,0,*58